This demonstration page uses our WeatherBlox Daily Observations layout. Learn more.

Left ArrowRight Arrow

36.17497, -115.13722

Hourly Observations for February 6, 2019

Temp ( °F °C ) Dew Point ( °F °C ) Humidity (%) Winds ( mph kmh ) Pressure ( in mb ) Visibility ( mi km ) Precip ( " mm )
12:53 am 00:53 Cloudy 39 3.9 23 -5 53 53 N 9 15 29.86 1011 10 16 0.00 0.00
1:53 am 01:53 Clear 39 3.9 20 -6.7 46 46 NNW 17 28 29.85 1011 10 16 0.00 0.00
2:53 am 02:53 Clear 39 3.9 15 -9.4 38 38 NNW 14 22 29.87 1012 10 16 0.00 0.00
3:53 am 03:53 Clear 37 2.8 14 -10 39 39 undefined N/A 29.88 1012 10 16 0.00 0.00
4:53 am 04:53 Clear 36 2.2 14 -10 40 40 NNW 18 30 29.89 1012 10 16 0.00 0.00
5:53 am 05:53 Clear 36 2.2 11 -11.7 35 35 NNW 14 22 29.92 1013 10 16 0.00 0.00
6:53 am 06:53 Sunny 37 2.8 10 -12.2 33 33 N 14 22 29.95 1014 10 16 0.00 0.00
7:53 am 07:53 Sunny 38 3.3 12 -11.1 34 34 NNW 20 31 29.97 1015 10 16 0.00 0.00
8:53 am 08:53 Sunny 41 5 13 -10.6 32 32 N 20 31 30.00 1016 10 16 0.00 0.00
9:53 am 09:53 Sunny 44 6.7 7 -13.9 22 22 N 23 37 30.01 1016 10 16 0.00 0.00
10:53 am 10:53 Sunny 45 7.2 8 -13.3 22 22 NNW 25 41 30.03 1017 10 16 0.00 0.00
11:53 am 11:53 Mostly Sunny 46 7.8 9 -12.8 22 22 NNW 24 39 30.02 1017 10 16 0.00 0.00
12:53 pm 12:53 Partly Cloudy 46 7.8 8 -13.3 21 21 NNW 20 31 30.02 1017 10 16 0.00 0.00
1:53 pm 13:53 Partly Cloudy 46 7.8 6 -14.4 19 19 N 14 22 30.02 1017 10 16 0.00 0.00
2:53 pm 14:53 Sunny 48 8.9 4 -15.6 16 16 NNW 20 31 30.01 1016 10 16 0.00 0.00
3:53 pm 15:53 Partly Cloudy 47 8.3 8 -13.3 20 20 NNW 22 35 30.05 1018 10 16 0.00 0.00
4:53 pm 16:53 Mostly Sunny 46 7.8 8 -13.3 21 21 NW 20 31 30.08 1019 10 16 0.00 0.00
5:53 pm 17:53 Clear 44 6.7 9 -12.8 24 24 NNW 13 20 30.10 1019 10 16 0.00 0.00
6:53 pm 18:53 Clear 43 6.1 12 -11.1 28 28 NNW 15 24 30.14 1021 10 16 0.00 0.00
7:53 pm 19:53 Clear 42 5.6 13 -10.6 30 30 NW 12 19 30.16 1021 10 16 0.00 0.00
8:53 pm 20:53 Clear 42 5.6 11 -11.7 28 28 NNW 13 20 30.19 1022 10 16 0.00 0.00
9:53 pm 21:53 Clear 41 5 11 -11.7 29 29 NNW 12 19 30.21 1023 10 16 0.00 0.00
10:53 pm 22:53 Clear 40 4.4 12 -11.1 32 32 NNW 12 19 30.24 1024 10 16 0.00 0.00
11:53 pm 23:53 Clear 38 3.3 14 -10 37 37 NW 14 22 30.26 1025 10 16 0.00 0.00

Powered by AerisWeather